This demonstration page uses our WeatherBlox Daily Observations layout. Learn more.

Left ArrowRight Arrow

41.86663, -103.66717

Hourly Observations for December 6, 2022

Temp ( °F °C ) Dew Point ( °F °C ) Humidity (%) Winds ( mph kmh ) Pressure ( in mb ) Visibility ( mi km ) Precip ( " mm )
12:53 am 00:53 Cloudy 29 -1.7 23 -5 78 78 ESE 5 7 29.83 1010 10 16 0.00 0.00
1:53 am 01:53 Mostly Cloudy 29 -1.7 23 -5 78 78 ESE 5 7 29.83 1010 10 16 0.00 0.00
2:53 am 02:53 Mostly Cloudy 29 -1.7 23 -5 78 78 Calm 29.85 1011 10 16 0.00 0.00
3:53 am 03:53 Clear 28 -2.2 23 -5 81 81 N 6 9 29.87 1011 10 16 0.00 0.00
4:53 am 04:53 Clear 27 -2.8 21 -6.1 78 78 Calm 29.88 1012 10 16 0.00 0.00
5:53 am 05:53 Clear 27 -2.8 20 -6.7 74 74 Calm 29.90 1013 10 16 0.00 0.00
6:53 am 06:53 Clear 31 -0.6 18 -7.8 58 58 WSW 10 17 29.91 1013 10 16 0.00 0.00
7:53 am 07:53 Sunny 34 1.1 18 -7.8 51 51 W 10 17 29.91 1013 10 16 0.00 0.00
8:53 am 08:53 Sunny 37 2.8 19 -7.2 48 48 N 3 6 29.91 1013 10 16 0.00 0.00
9:53 am 09:53 Sunny 41 5 18 -7.8 39 39 Calm 29.92 1013 10 16 0.00 0.00
10:53 am 10:53 Sunny 44 6.7 17 -8.3 33 33 WNW 15 24 29.89 1012 10 16 0.00 0.00
11:53 am 11:53 Sunny 46 7.8 16 -8.9 29 29 W 13 20 29.88 1012 10 16 0.00 0.00
12:53 pm 12:53 Sunny 47 8.3 16 -8.9 28 28 WNW 16 26 29.88 1012 10 16 0.00 0.00
1:53 pm 13:53 Sunny 48 8.9 16 -8.9 27 27 W 18 30 29.88 1012 10 16 0.00 0.00
2:53 pm 14:53 Sunny 44 6.7 17 -8.3 33 33 W 15 24 29.91 1013 10 16 0.00 0.00
3:53 pm 15:53 Sunny 44 6.7 18 -7.8 35 35 W 12 19 29.93 1013 10 16 0.00 0.00
4:53 pm 16:53 Clear 42 5.6 16 -8.9 34 34 W 17 28 29.94 1014 10 16 0.00 0.00
5:53 pm 17:53 Clear 40 4.4 16 -8.9 37 37 W 16 26 29.98 1015 10 16 0.00 0.00
6:53 pm 18:53 Clear 38 3.3 15 -9.4 39 39 W 12 19 29.98 1015 10 16 0.00 0.00
7:53 pm 19:53 Clear 32 0 16 -8.9 51 51 W 8 13 30.01 1016 10 16 0.00 0.00
8:53 pm 20:53 Clear 29 -1.7 16 -8.9 58 58 NW 5 7 30.02 1017 10 16 0.00 0.00
9:53 pm 21:53 Clear 25 -3.9 15 -9.4 65 65 Calm 30.03 1017 10 16 0.00 0.00
10:53 pm 22:53 Clear 31 -0.6 14 -10 49 49 Calm 30.03 1017 10 16 0.00 0.00
11:53 pm 23:53 Clear 28 -2.2 14 -10 55 55 Calm 30.04 1017 10 16 0.00 0.00

Powered by AerisWeather